Location: Caracas
(10.5033°N, 66.8422°W)
Time: 07:39:42
(UTC-04:00)

Vanguard 2 Rocket - All Passes

Search period start: 19 July 2018 00:00
Search period end: 29 July 2018 00:00
Orbit: 554 x 3327 km, 32.9° (Epoch: 18 July)

Date Brightness Start Highest point End Pass type
(mag) Time Alt. Az. Time Alt. Az. Time Alt. Az.
19 Jul - 00:39:25 10° WSW 00:43:22 56° NNW 00:48:45 10° NE night (unlit)
19 Jul - 02:54:19 10° NW 02:58:15 18° N 03:03:33 10° NNE visible
19 Jul - 05:09:04 10° NNW 05:15:45 21° NNE 05:25:15 10° ENE visible
19 Jul - 07:22:09 10° NW 07:34:09 43° NNE 07:51:57 10° E daylight
19 Jul - 09:36:09 10° NW 09:52:45 89° NNE 10:13:25 10° SE daylight
19 Jul - 11:54:00 10° WNW 12:11:43 43° SW 12:28:49 10° SSE daylight
19 Jul - 14:24:24 10° SW 14:31:03 12° SW 14:37:06 10° SSW daylight
19 Jul - 23:40:21 10° SW 23:44:13 69° SE 23:48:45 10° ENE night (unlit)
20 Jul - 01:54:28 10° WNW 01:57:58 20° NNW 02:02:39 10° NNE visible
20 Jul - 04:09:57 10° NNW 04:14:35 16° N 04:20:45 10° NE visible
20 Jul - 06:22:51 10° NW 06:32:31 32° NNE 06:47:09 10° E daylight
20 Jul - 08:35:59 10° NW 08:50:35 72° NNE 09:11:03 10° ESE daylight
20 Jul - 10:51:49 10° WNW 11:09:23 56° SW 11:28:32 10° SE daylight
20 Jul - 13:15:33 10° WSW 13:28:40 21° SW 13:40:32 10° S daylight
20 Jul - 22:41:35 10° SSW 22:45:11 29° SE 22:48:43 10° E night (unlit)
21 Jul - 00:54:38 10° W 00:58:07 26° NNW 01:02:36 10° NE visible
21 Jul - 03:10:43 10° NNW 03:13:46 13° N 03:17:30 10° NNE visible
21 Jul - 05:23:52 10° NNW 05:31:12 24° NNE 05:41:56 10° ENE visible
21 Jul - 07:36:20 10° NW 07:48:46 55° NNE 08:07:44 10° ESE daylight
21 Jul - 09:50:40 10° WNW 10:07:02 72° SW 10:27:27 10° SE daylight
21 Jul - 12:10:26 10° W 12:26:14 30° SW 12:41:39 10° SSE daylight
21 Jul - 21:43:20 10° S 21:45:52 15° SSE 21:48:11 10° ESE night (unlit)
21 Jul - 23:54:57 10° WSW 23:58:42 45° NNW 00:03:02 10° NE night (unlit)
22 Jul - 02:11:04 10° NNW 02:13:18 12° N 02:15:53 10° NNE visible
22 Jul - 04:25:10 10° NNW 04:30:09 17° NNE 04:36:50 10° NE visible
22 Jul - 06:37:06 10° NW 06:47:21 41° NNE 07:03:33 10° E daylight
22 Jul - 08:50:18 10° WNW 09:04:53 89° SW 09:25:35 10° SE daylight
22 Jul - 11:07:20 10° W 11:23:48 41° SW 11:41:44 10° SSE daylight
22 Jul - 13:36:18 10° SW 13:44:07 13° SSW 13:51:27 10° S daylight
22 Jul - 22:55:27 10° SW 22:59:35 82° SSE 23:03:36 10° ENE night (unlit)
23 Jul - 01:10:47 10° NW 01:13:09 14° NNW 01:15:54 10° NNE visible
23 Jul - 03:26:51 10° N 03:29:21 12° N 03:32:15 10° NNE visible
23 Jul - 05:38:13 10° NNW 05:46:16 29° NNE 05:58:43 10° E visible
23 Jul - 07:50:31 10° NW 08:03:07 72° NE 08:22:50 10° ESE daylight
23 Jul - 10:05:37 10° WNW 10:21:25 54° SW 10:41:00 10° SE daylight
23 Jul - 12:28:22 10° WSW 12:41:18 21° SSW 12:53:55 10° S daylight
23 Jul - 21:56:08 10° SW 22:00:28 36° SSE 22:04:06 10° E night (unlit)
24 Jul - 00:10:24 10° WNW 00:13:23 20° NNW 00:16:44 10° NNE night (unlit)
24 Jul - 04:39:41 10° NNW 04:45:27 20° NNE 04:53:38 10° ENE visible
24 Jul - 06:51:13 10° NW 07:01:50 55° NNE 07:19:19 10° ESE daylight
24 Jul - 09:04:52 10° WNW 09:19:13 69° SW 09:39:31 10° SE daylight
24 Jul - 11:23:49 10° W 11:38:35 29° SW 11:54:29 10° SSE daylight
24 Jul - 20:57:00 10° SSW 21:01:03 20° SSE 21:04:15 10° ESE visible
24 Jul - 23:10:11 10° W 23:14:02 37° NNW 23:17:48 10° NE night (unlit)
25 Jul - 03:41:45 10° N 03:44:49 13° NNE 03:48:32 10° NE visible
25 Jul - 05:52:20 10° NW 06:00:57 39° NNE 06:15:07 10° E visible
25 Jul - 08:04:52 10° WNW 08:17:25 86° SW 08:37:18 10° SE daylight
25 Jul - 10:21:12 10° W 10:36:03 39° SW 10:54:06 10° SSE daylight
25 Jul - 12:48:59 10° SW 12:57:04 13° SSW 13:04:59 10° S daylight
25 Jul - 19:58:14 10° S 20:01:12 13° SSE 20:03:41 10° SE visible
25 Jul - 22:10:09 10° WSW 22:14:57 85° NNW 22:18:51 10° NE night (unlit)
26 Jul - 00:27:37 10° NNW 00:28:19 10° NNW 00:29:02 10° N night (unlit)
26 Jul - 04:53:48 10° NNW 05:00:24 26° NNE 05:10:29 10° E visible
26 Jul - 07:05:24 10° NW 07:16:07 73° NE 07:34:23 10° ESE daylight
26 Jul - 09:19:52 10° WNW 09:33:45 50° SW 09:52:58 10° SE daylight
26 Jul - 11:41:49 10° WSW 11:53:57 20° SSW 12:06:41 10° S daylight
26 Jul - 21:10:12 10° SW 21:15:45 47° SSE 21:19:44 10° ENE visible
26 Jul - 23:25:53 10° WNW 23:28:37 17° NNW 23:31:20 10° NNE night (unlit)
27 Jul - 03:55:46 10° NNW 04:00:01 16° NNE 04:05:38 10° ENE visible
27 Jul - 06:06:24 10° NW 06:15:20 53° NE 06:30:51 10° ESE daylight
27 Jul - 08:19:29 10° WNW 08:31:51 65° SW 08:51:10 10° SE daylight
27 Jul - 10:37:47 10° W 10:51:06 27° SSW 11:06:45 10° SSE daylight
27 Jul - 20:10:17 10° SSW 20:16:13 28° SSE 20:20:18 10° E visible
27 Jul - 22:25:02 10° W 22:29:20 34° NNW 22:32:56 10° NE night (unlit)
28 Jul - 05:07:46 10° NNW 05:14:58 36° NNE 05:26:52 10° E visible
28 Jul - 07:19:46 10° WNW 07:30:26 83° SW 07:48:47 10° SE daylight
28 Jul - 09:35:34 10° W 09:48:37 36° SSW 10:05:57 10° SSE daylight
28 Jul - 12:02:31 10° SW 12:10:02 13° SSW 12:17:42 10° S daylight
28 Jul - 19:10:22 10° SSW 19:16:12 20° SSE 19:20:23 10° ESE visible
28 Jul - 21:24:23 10° WSW 21:30:14 75° NW 21:34:19 10° NE visible
